[[{"header":{"parameterUnit":"m.s-1","parameterCategory":1,"la1":30.2991,"la2":30.254,"lo1":-89.0895,"lo2":-89.0444,"dy":0.0017,"dx":0.0017,"nx":28,"ny":28,"refTime":"2026-03-03T09:00:00:Z","depth":0,"parameterNumber":2,"parameterNumberName":"U-component_of_WINDS"},"data":[0,0,0,0,0,0,0,0,0,0,0,0,0,0,0,0,0,0,0,0,0,0,0,0,0,0,0,0,0,0,0,0,0,0,0,0,0,0,0,0,0,0,0,0,0,0,0,0,0,0,0,0,0,0,0,0,0,0,-4.7621,-4.7623,0,-4.782,-4.7822,-4.7824,-4.7828,-4.7825,-4.7823,-4.7821,-4.8017,-4.8024,-4.8032,0,0,0,0,0,0,0,0,0,0,0,0,0,-4.724,-4.7247,-4.762,-4.7623,-4.7626,-4.7819,-4.7822,-4.7825,-4.7828,-4.7825,-4.7822,-4.7819,-4.8015,-4.8023,-4.8032,0,0,0,0,0,0,0,0,0,0,0,0,0,-4.7418,-4.7249,-4.762,-4.7651,-4.7656,-4.7819,-4.7822,-4.7826,-4.7829,-4.7825,-4.7822,-4.7818,-4.8012,-4.8023,-4.8034,-4.8177,0,0,-4.8068,-4.8073,0,0,0,0,0,0,0,0,-4.7408,-4.7432,-4.7644,-4.7649,-4.7655,-4.7795,-4.776,-4.7943,-4.783,-4.7763,-4.7821,-4.7816,-4.7946,-4.7962,-4.8007,-4.8187,-4.8195,-4.8069,-4.8076,-4.8081,-4.8084,0,0,0,0,0,0,0,-4.7396,-4.7424,-4.7699,-4.7647,-4.7654,-4.7654,-4.7675,-4.7795,-4.7872,-4.7768,-4.7769,-4.7793,-4.7948,-4.7997,-4.8012,-4.8198,-4.8069,-4.8079,-4.8086,-4.809,-4.8508,-4.8512,0,0,0,0,0,0,-4.7378,-4.7413,-4.7693,-4.7705,-4.752,-4.7663,-4.7687,-4.7754,-4.7871,-4.7886,-4.7796,-4.7793,-4.7979,-4.7999,-4.8019,-4.8196,-4.8081,-4.8091,-4.8098,-4.8503,-4.8509,-4.8513,0,0,0,0,0,0,-4.737,-4.7403,-4.7685,-4.756,-4.7596,-4.7674,-4.7749,-4.776,-4.7808,-4.7892,-4.7905,-4.7832,-4.7977,-4.8003,-4.8139,-4.8203,-4.8096,-4.8107,-4.8498,-4.8505,-4.8511,-4.855,0,0,0,0,0,0,-4.7359,-4.74,-4.7456,-4.7561,-4.7602,-4.7803,-4.7753,-4.7766,-4.7829,-4.7826,-4.7929,-4.7942,-4.7976,-4.8122,-4.815,-4.8216,-4.8116,-4.8493,-4.8501,-4.8509,-4.8543,-4.8557,-4.8569,0,0,0,0,0,-4.7345,-4.7456,-4.7459,-4.7492,-4.7674,-4.7806,-4.783,-4.7868,-4.7834,-4.789,-4.7945,-4.7939,-4.8192,-4.8136,-4.8168,-4.8238,-4.8489,-4.8499,-4.8508,-4.8538,-4.8554,-4.8568,0,0,0,0,0,0,-4.7352,-4.7471,-4.7474,-4.7623,-4.7705,-4.7807,-4.7878,-4.7884,-4.7975,-4.7968,-4.8011,-4.8034,-4.817,-4.8218,-4.8153,-4.8385,-4.8336,-4.8353,-4.8348,-4.8364,-4.8377,-4.8361,-4.8125,0,0,0,0,0,-4.7372,-4.7472,-4.7569,-4.7691,-4.7732,-4.7799,-4.7858,-4.7881,-4.7966,-4.8,-4.8064,-4.8146,-4.8244,-4.8307,-4.8402,-4.8552,-4.8574,-4.8616,-4.8629,-4.8639,-4.8651,-4.8736,-4.8756,-4.8545,-4.8545,-4.8545,0,0,-4.7412,-4.7489,-4.7548,-4.7694,-4.776,-4.7861,-4.7827,-4.7934,-4.801,-4.8015,-4.8148,-4.8199,-4.8293,-4.8437,-4.8504,-4.8482,-4.8716,-4.8651,-4.8659,-4.8666,-4.8748,-4.8768,-4.8785,-4.8552,-4.8551,-4.855,0,0,-4.7536,-4.7605,-4.7715,-4.7784,-4.7886,-4.7931,-4.7958,-4.806,-4.8095,-4.823,-4.8238,-4.8327,-4.8495,-4.8562,-4.8618,-4.8775,-4.8773,-4.8805,-4.8869,-4.8951,-4.8968,-4.8983,-4.9038,-4.9057,-4.8818,-4.8818,-4.8818,0,-4.7571,-4.7726,-4.777,-4.788,-4.7944,-4.7959,-4.807,-4.8134,-4.8261,-4.8305,-4.8279,-4.8493,-4.8557,-4.8718,-4.8757,-4.8802,-4.8833,-4.8791,-4.8962,-4.8978,-4.8992,-4.9045,-4.9066,-4.8821,-4.8821,-4.882,-4.882,0,-4.7765,-4.7872,-4.7948,-4.8075,-4.8148,-4.8258,-4.8318,-4.8387,-4.8406,-4.8453,-4.8592,-4.8671,-4.8782,-4.8823,-4.884,-4.8988,-4.8971,-4.8954,-4.8905,-4.9015,-4.9065,-4.9086,-4.8825,-4.8824,-4.8823,-4.8823,0,0,-4.7892,-4.8048,-4.8075,-4.8134,-4.8251,-4.8333,-4.8445,-4.8558,-4.8616,-4.8705,-4.8799,-4.8944,-4.893,-4.8994,-4.902,-4.9092,-4.9212,-4.9067,-4.9069,-4.909,-4.9379,-4.9389,-4.9412,-4.9213,-4.9218,-4.9221,-4.937,0,-4.8028,-4.8228,-4.8275,-4.8446,-4.8546,-4.8565,-4.8662,-4.8744,-4.8793,-4.8884,-4.8937,-4.9038,-4.9013,-4.9052,-4.9125,-4.9182,-4.927,-4.9172,-4.9299,-4.9303,-4.9272,-4.9438,-4.9449,-4.9586,-4.9391,-4.9394,-4.9397,0,-4.8211,-4.8309,-4.8491,-4.8599,-4.8643,-4.8729,-4.8839,-4.8926,-4.902,-4.9051,-4.9126,-4.9146,-4.9262,-4.9211,-4.9372,-4.9304,-4.936,-4.9396,-4.9403,-4.9413,-4.9354,-4.9451,-4.9631,-4.965,-4.9428,-4.9426,-4.9423,0,-4.8285,-4.8462,-4.8595,-4.8645,-4.8774,-4.8835,-4.8891,-4.8982,-4.9049,-4.9144,-4.9188,-4.9295,-4.9352,-4.9434,-4.9483,-4.9441,-4.964,-4.9592,-4.9666,-4.9665,-4.9703,-4.97,-4.9892,-4.9744,-4.9744,-4.9743,-4.9743,0,-4.843,-4.854,-4.863,-4.8711,-4.8837,-4.889,-4.9011,-4.9068,-4.915,-4.9242,-4.9265,-4.935,-4.941,-4.9504,-4.9543,-4.967,-4.9696,-4.9723,-4.9731,-4.972,-4.9716,-4.9753,-4.9744,-4.9749,-4.9748,-4.9747,-4.9746,0,-4.8531,-4.8596,-4.8742,-4.8855,-4.8886,-4.8973,-4.9069,-4.9149,-4.9201,-4.9317,-4.9347,-4.9427,-4.9539,-4.9598,-4.9736,-4.9763,-4.9905,-4.9909,-4.9874,-4.9877,-4.9947,-4.9939,-5.0167,-5.02,-5.0033,-5.0034,-5.0035,0,-4.8617,-4.8703,-4.8828,-4.8893,-4.8951,-4.9055,-4.9125,-4.9182,-4.9253,-4.937,-4.9435,-4.955,-4.9644,-4.9823,-4.9892,-4.9999,-5.0004,-5.0078,-5.002,-5.0006,-5.0003,-4.9996,-5.0005,-5.0086,-5.0087,-5.0089,-5.009,0,-4.8763,-4.8793,-4.8893,-4.9007,-4.909,-4.9181,-4.9271,-4.9323,-4.9394,-4.9473,-4.959,-4.9664,-4.9809,-4.9922,-5.0036,-5.0092,-5.0103,-5.0109,-5.0131,-5.0117,-5.0093,-5.0106,-4.9899,-5.0101,-5.01,-5.0099,-5.0099,-5.0098,-4.8858,-4.8936,-4.9038,-4.915,-4.9225,-4.931,-4.9391,-4.9456,-4.9555,-4.968,-4.9708,-4.9831,-4.9927,-5.0081,-5.0142,-5.0239,-5.0223,-5.0256,-5.0264,-5.027,-5.0273,-5.0081,-5.026,-5.026,-5.0259,-5.0259,-5.0259,0,-4.9003,-4.9071,-4.9175,-4.9302,-4.9391,-4.9399,-4.9501,-4.9573,-4.9683,-4.9773,-4.9867,-5.0003,-5.0115,-5.0196,-5.0309,-5.0371,-5.0379,-5.0398,-5.0392,-5.0405,-5.0281,-5.0249,-5.039,-5.039,-5.039,-5.039,-5.039,-5.039,-4.9089,-4.9223,-4.9266,-4.9438,-4.9504,-4.9628,-4.9686,-4.9764,-4.9837,-4.9989,-5.0083,-5.0137,-5.0223,-5.0344,-5.0447,-5.0468,-5.0507,-5.0527,-5.0547,-5.0428,-5.0414,-5.04,-5.0371,-5.0535,-5.0536,-5.0664,-5.0665,-5.0666]},{"header":{"parameterUnit":"m.s-1","parameterCategory":1,"la1":30.2991,"la2":30.254,"lo1":-89.0895,"lo2":-89.0444,"dy":0.0017,"dx":0.0017,"nx":28,"ny":28,"refTime":"2026-03-03T09:00:00:Z","depth":0,"parameterNumber":3,"parameterNumberName":"V-component_of_WINDS"},"data":[0,0,0,0,0,0,0,0,0,0,0,0,0,0,0,0,0,0,0,0,0,0,0,0,0,0,0,0,0,0,0,0,0,0,0,0,0,0,0,0,0,0,0,0,0,0,0,0,0,0,0,0,0,0,0,0,0,0,1.265,1.2652,0,1.2815,1.2817,1.2818,1.2901,1.2902,1.2902,1.2902,1.3071,1.3075,1.3079,0,0,0,0,0,0,0,0,0,0,0,0,0,1.241,1.2414,1.265,1.2652,1.2654,1.2814,1.2817,1.2819,1.2901,1.2902,1.2902,1.2902,1.3069,1.3074,1.308,0,0,0,0,0,0,0,0,0,0,0,0,0,1.2539,1.2416,1.265,1.2715,1.2722,1.2814,1.2817,1.2819,1.2901,1.2902,1.2902,1.2902,1.3067,1.3074,1.308,1.312,0,0,1.3101,1.3104,0,0,0,0,0,0,0,0,1.2531,1.2547,1.2703,1.271,1.2719,1.2838,1.2794,1.292,1.2901,1.2833,1.2902,1.2902,1.2993,1.3006,1.3037,1.3128,1.3135,1.3101,1.3105,1.3108,1.311,0,0,0,0,0,0,0,1.2522,1.2541,1.2715,1.2705,1.2715,1.2737,1.2755,1.2819,1.2911,1.2839,1.2846,1.2864,1.2997,1.303,1.3041,1.3138,1.3101,1.3107,1.3111,1.3114,1.3275,1.3275,0,0,0,0,0,0,1.2503,1.2533,1.271,1.272,1.2623,1.2741,1.2761,1.2799,1.291,1.2927,1.2864,1.2867,1.3018,1.3033,1.3047,1.3104,1.3108,1.3115,1.3118,1.3275,1.3275,1.3275,0,0,0,0,0,0,1.2497,1.2518,1.2703,1.2628,1.2654,1.2745,1.2787,1.2803,1.2835,1.2929,1.2946,1.288,1.3019,1.3038,1.3103,1.3111,1.3118,1.3124,1.3274,1.3275,1.3275,1.3216,0,0,0,0,0,0,1.249,1.2515,1.253,1.2628,1.2657,1.2754,1.2787,1.2806,1.2847,1.2853,1.2948,1.2964,1.3021,1.3092,1.3109,1.312,1.3129,1.3274,1.3274,1.3275,1.3218,1.3214,1.3212,0,0,0,0,0,1.2481,1.2506,1.253,1.2551,1.2678,1.2755,1.2772,1.2836,1.2847,1.2864,1.2924,1.2961,1.3107,1.3098,1.3118,1.3131,1.3274,1.3274,1.3275,1.3219,1.3215,1.3212,0,0,0,0,0,0,1.2406,1.252,1.2548,1.2606,1.267,1.2769,1.2791,1.2829,1.2891,1.2894,1.2971,1.2992,1.305,1.3097,1.3085,1.3178,1.3194,1.3199,1.3145,1.3142,1.3139,1.3127,1.3134,0,0,0,0,0,1.2397,1.2449,1.2546,1.2587,1.2618,1.2699,1.2735,1.2779,1.2849,1.2876,1.2942,1.3008,1.307,1.3108,1.3169,1.3225,1.3248,1.3244,1.3241,1.3238,1.3241,1.3278,1.3278,1.3277,1.3277,1.3277,0,0,1.2377,1.2446,1.2474,1.2574,1.2629,1.2683,1.2721,1.2776,1.2817,1.2885,1.295,1.3,1.308,1.3141,1.3171,1.3182,1.3247,1.3239,1.3236,1.3241,1.3278,1.3278,1.3278,1.3278,1.3277,1.3277,0,0,1.2369,1.2425,1.2468,1.2523,1.2606,1.266,1.267,1.2764,1.28,1.2867,1.292,1.2971,1.3074,1.313,1.3171,1.3188,1.3226,1.3206,1.319,1.3225,1.3225,1.3225,1.3234,1.3236,1.3209,1.3209,1.3209,0,1.2335,1.2417,1.2485,1.2537,1.2581,1.2646,1.269,1.274,1.2839,1.2868,1.2879,1.3012,1.307,1.3147,1.3151,1.3182,1.3198,1.3196,1.3219,1.322,1.3222,1.3231,1.3234,1.3206,1.3206,1.3206,1.3207,0,1.2372,1.2428,1.2453,1.2548,1.2594,1.2642,1.2719,1.2758,1.2798,1.2852,1.2921,1.2993,1.3072,1.3093,1.3133,1.3177,1.3181,1.3204,1.3223,1.3218,1.3228,1.3232,1.3202,1.3203,1.3204,1.3204,0,0,1.232,1.2454,1.2462,1.2507,1.2605,1.2651,1.2703,1.2781,1.2814,1.288,1.2928,1.3015,1.3039,1.3086,1.3133,1.3162,1.3175,1.3183,1.3186,1.3181,1.3231,1.3214,1.3217,1.32,1.3201,1.3202,1.3225,0,1.2328,1.2424,1.2488,1.256,1.2615,1.2678,1.2725,1.279,1.2842,1.2898,1.2955,1.3017,1.3042,1.3071,1.3104,1.3166,1.3186,1.3165,1.3247,1.3249,1.3226,1.3222,1.3203,1.3222,1.3229,1.323,1.323,0,1.2349,1.2415,1.2493,1.2588,1.2613,1.2653,1.2731,1.2782,1.286,1.2896,1.295,1.2998,1.3058,1.3071,1.3156,1.3141,1.3178,1.3214,1.3216,1.3228,1.324,1.3235,1.3229,1.3232,1.3237,1.3236,1.3236,0,1.2307,1.2415,1.2477,1.2513,1.2625,1.2652,1.27,1.2777,1.2821,1.2889,1.2919,1.2992,1.3033,1.309,1.3158,1.3161,1.3238,1.3255,1.3271,1.327,1.3285,1.3283,1.3287,1.3306,1.3306,1.3306,1.3306,0,1.231,1.2355,1.246,1.2497,1.2551,1.2625,1.2677,1.273,1.2799,1.2849,1.2908,1.2955,1.3041,1.3098,1.3152,1.3216,1.3233,1.3266,1.328,1.3261,1.3257,1.3288,1.3289,1.3307,1.3306,1.3306,1.3306,0,1.2272,1.2343,1.2415,1.2515,1.2542,1.2577,1.2664,1.2705,1.276,1.2824,1.2843,1.2932,1.3003,1.3076,1.3171,1.3208,1.3271,1.3289,1.3245,1.3253,1.3266,1.3264,1.329,1.3299,1.3309,1.3309,1.3309,0,1.227,1.2306,1.2412,1.245,1.2497,1.2557,1.2603,1.2677,1.2723,1.2815,1.2845,1.292,1.2985,1.3096,1.3169,1.3244,1.3266,1.327,1.3277,1.3259,1.3269,1.3266,1.3272,1.3267,1.3266,1.3266,1.3266,0,1.2259,1.2293,1.2356,1.2432,1.2485,1.2548,1.2614,1.2642,1.2731,1.2779,1.2852,1.2903,1.3002,1.3077,1.3161,1.3212,1.3255,1.3263,1.3271,1.3253,1.3227,1.3244,1.324,1.3262,1.3262,1.3263,1.3263,1.3263,1.2241,1.2278,1.2358,1.2427,1.2485,1.2546,1.2589,1.2652,1.2714,1.2801,1.2842,1.2917,1.2996,1.3113,1.3164,1.3224,1.3236,1.3247,1.325,1.3252,1.3249,1.3216,1.324,1.324,1.324,1.324,1.324,0,1.2235,1.2291,1.2353,1.2444,1.2499,1.2534,1.261,1.2654,1.2719,1.2789,1.2853,1.2939,1.3013,1.3093,1.3173,1.3206,1.3228,1.3225,1.3224,1.3236,1.3233,1.3219,1.3206,1.3206,1.3206,1.3206,1.3206,1.3206,1.2239,1.2304,1.2348,1.2444,1.25,1.2573,1.2614,1.2671,1.2728,1.2822,1.2885,1.2936,1.3012,1.3098,1.3168,1.319,1.3217,1.3209,1.3237,1.3233,1.3235,1.3238,1.3225,1.3214,1.3214,1.3235,1.3235,1.3235]}]]